Location: Kerv�nanec
(47.7356°N, 3.3906°W)
Time: 09:27:56
(UTC+00:00)

Daily predictions for brighter satellites

Satellite Brightness Start Highest point End
(mag) Time Altitude Azimuth Time Altitude Azimuth Time Altitude Azimuth
Meteor 1-12 Rocket 4.3 20:32:01 10° N 20:37:41 72° ENE 20:43:23 10° SSE
MetOp-B 4.4 20:33:27 10° SE 20:38:39 56° ENE 20:43:53 10° N
SL-8 R/B 3.8 20:35:03 10° W 20:39:52 88° N 20:44:42 10° E
STARLINK-1073 4.2 20:35:52 10° WNW 20:39:58 56° NNE 20:44:03 10° E
STARLINK-1192 3.6 20:36:43 10° WSW 20:40:51 80° SSE 20:45:01 10° ENE
Cosmos 2279 Rocket 4.1 20:36:11 10° N 20:42:26 67° ENE 20:48:36 10° SSE
STARLINK-1108 4.0 20:38:38 10° WNW 20:42:42 56° SW 20:46:45 10° SE
ATLAS CENTAUR R/B 3.7 20:42:13 10° NW 20:43:18 12° NNW 20:44:15 10° N
Cosmos 1850 Rocket 4.2 20:38:06 10° NNW 20:43:28 66° ENE 20:48:46 10° SSE
Cosmos 371 Rocket 3.3 20:39:59 10° S 20:44:46 67° ESE 20:49:38 10° NNE
STARLINK-1121 4.1 20:40:50 10° WNW 20:44:57 59° NNE 20:49:03 10° E
SPOT 3 Rocket 4.1 20:40:06 10° S 20:45:11 60° WSW 20:50:18 10° NNW
STARLINK-1244 3.6 20:41:41 10° WSW 20:45:49 85° SSE 20:50:00 10° ENE
SL-4 R/B 4.2 20:45:03 10° SE 20:45:50 10° SE 20:46:37 10° ESE
STARLINK-1071 4.1 20:43:37 10° WNW 20:47:39 52° SW 20:51:40 10° SE
Abrixas rocket 1.9 20:45:34 10° W 20:48:31 74° SSW 20:51:28 10° ESE
Terra 3.6 20:45:30 10° ESE 20:48:52 20° ENE 20:52:15 10° NNE
Cosmos 2151 Rocket 3.7 20:44:39 10° N 20:49:11 66° E 20:53:41 10° SSE
Spot 2 Rocket 3.8 20:44:52 10° SSE 20:49:46 55° ENE 20:54:43 10° N
STARLINK-1106 4.0 20:45:51 10° WNW 20:49:58 62° NNE 20:54:05 10° ESE
ERBS 3.8 20:47:03 10° W 20:50:12 40° NNW 20:53:22 10° NE
SPOT 1/Viking Rocket 4.2 20:45:53 10° SE 20:50:43 42° ENE 20:55:34 10° N
STARLINK-1138 3.6 20:46:40 10° WSW 20:50:48 90° NNW 20:54:58 10° ENE
STARLINK-1110 4.2 20:47:25 10° WNW 20:51:25 49° SW 20:55:25 10° SE
H-2A R/B 4.5 20:50:48 10° SW 20:54:30 20° W 20:58:17 10° NW
STARLINK-1112 3.9 20:50:48 10° WNW 20:54:56 65° NNE 20:59:03 10° ESE
CZ-2C R/B 4.5 20:51:09 10° N 20:55:34 57° WNW 21:00:02 10° SSW
STARLINK-1143 3.7 20:51:37 10° WSW 20:55:46 85° NNW 20:59:56 10° ENE
STARLINK-1124 4.3 20:53:37 10° WNW 20:57:35 44° SW 21:01:29 10° SE
STARLINK-1128 3.9 20:55:46 10° WNW 20:59:55 68° NNE 21:04:03 10° ESE
STARLINK-1241 3.8 20:56:38 10° WSW 21:00:47 80° NNW 21:04:57 10° ENE
STARLINK-1122 4.4 20:58:37 10° WNW 21:02:32 41° SW 21:06:15 11° SSE
deb Kosmos-1763 4.3 21:00:12 10° NNW 21:03:44 53° ENE 21:06:57 12° SE
Cosmos 1300 Rocket 3.8 20:59:33 10° NNW 21:04:00 71° W 21:08:24 10° S
Aureole 2 Rocket 2.5 21:01:37 10° S 21:04:34 41° ESE 21:07:24 10° NE
STARLINK-1113 3.8 21:00:46 10° WNW 21:04:55 72° NNE 21:09:03 10° ESE
STARLINK-1239 3.8 21:01:37 10° WSW 21:05:45 76° NNW 21:09:55 10° ENE
Cosmos 1437 Rocket 2.6 21:05:57 10° S 21:09:42 71° E 21:13:32 10° NNE
STARLINK-1119 3.7 21:05:46 10° WNW 21:09:56 76° NNE 21:14:04 10° ESE
STARLINK-1240 3.9 21:06:35 10° WSW 21:10:43 72° NNW 21:14:52 10° ENE
Cosmos 1378 4.3 21:09:41 12° SE 21:12:24 26° E 21:15:34 10° NNE
ISS -2.0 21:11:54 10° W 21:14:36 22° SW 21:17:02 11° S
STARLINK-1114 3.7 21:10:43 10° WNW 21:14:53 80° NNE 21:18:49 11° ESE
STARLINK-1203 4.0 21:11:25 10° WSW 21:15:36 69° NNW 21:19:48 10° ENE
STARLINK-1216 4.0 21:11:34 10° WSW 21:15:42 69° NNW 21:19:51 10° ENE
Cosmos 304 Rocket 3.8 21:11:28 10° S 21:16:11 63° ESE 21:20:57 10° NNE
Meteor 1-15 Rocket 4.4 21:10:15 10° N 21:16:13 74° ENE 21:21:57 11° SSE
NOSS 8 (E) 4.2 21:14:15 10° SW 21:17:28 82° NW 21:20:31 10° NE
Lacrosse 5 3.1 21:13:12 10° WNW 21:17:40 32° SW 21:22:07 10° S
USA 215 4.5 21:11:55 10° ENE 21:17:56 41° N 21:23:56 10° WNW
STARLINK-1130 (DARKSAT) 3.6 21:15:42 10° WNW 21:19:53 85° NNE 21:23:37 13° ESE
NOSS 2-2 (D) 3.6 21:17:22 10° S 21:20:42 38° ESE 21:24:20 10° NE
STARLINK-1237 4.1 21:16:34 10° WSW 21:20:42 65° NNW 21:24:50 10° ENE
CENTAUR R/B 3.9 21:14:33 10° NW 21:22:01 47° NE 21:30:18 10° ESE
CZ-2C R/B 4.1 21:18:30 10° N 21:23:44 41° WNW 21:28:57 10° SW
STARLINK-1084 3.6 21:20:42 10° WNW 21:24:51 89° N 21:28:24 14° ESE
Cosmos 1674 Rocket 3.5 21:20:31 10° S 21:24:53 87° E 21:29:20 10° N
ATLAS 3B R/B 4.3 21:19:10 10° NNW 21:24:55 29° NNE 21:30:47 10° E
STARLINK-1202 4.2 21:21:35 10° WSW 21:25:42 62° NNW 21:29:49 10° ENE
SL-27 R/B 4.2 21:24:09 10° N 21:27:04 23° ENE 21:29:28 12° ESE
Cosmos 1378 Rocket 3.5 21:23:23 10° S 21:27:46 72° E 21:32:09 10° NNE
STARLINK-1098 3.6 21:25:40 10° WNW 21:29:50 86° SSW 21:33:11 15° ESE
Cosmos 1766 3.9 21:26:16 10° N 21:30:05 42° ENE 21:32:47 17° SE
STARLINK-1123 3.6 21:30:38 10° WNW 21:34:48 81° SSW 21:37:56 17° SE
STARLINK-1246 4.3 21:31:36 10° W 21:35:41 57° NNW 21:39:47 10° ENE
IGS 5A 3.8 21:31:57 11° S 21:35:49 65° W 21:39:58 10° NNW
Cosmos 1943 Rocket 2.6 21:31:52 10° S 21:37:00 40° ESE 21:42:12 10° NE
Cosmos 2297 3.7 21:31:20 10° SSW 21:37:01 85° ESE 21:42:47 10° NNE
Cosmos 1900 4.5 21:32:05 10° NNW 21:37:08 73° NE 21:41:01 17° SE
NOSS 2-2 (E) 3.0 21:34:21 10° SSW 21:37:54 73° SE 21:41:58 10° NE
STARLINK-1097 3.6 21:35:39 10° WNW 21:39:48 76° SSW 21:42:45 18° SE
STARLINK-1224 4.4 21:36:37 10° W 21:40:41 54° NNW 21:44:45 10° ENE
Landsat 7 4.2 21:36:41 11° S 21:41:12 61° W 21:45:57 10° NNW
Cosmos 2082 Rocket 3.5 21:37:13 10° NW 21:42:21 35° WSW 21:47:26 10° S
SeaSat 1 4.3 21:41:41 10° ENE 21:43:49 13° E 21:44:35 12° ESE
STARLINK-1099 3.6 21:40:38 10° WNW 21:44:46 71° SSW 21:47:31 20° SE
Cosmos 1461 3.5 21:40:55 10° SW 21:45:02 61° NW 21:49:25 10° NNE
SAR-Lupe-2 4.1 21:41:29 10° N 21:45:03 61° WNW 21:48:36 10° SSW
STARLINK-1212 4.4 21:44:26 10° WNW 21:47:20 34° NNE 21:50:13 10° E
Cosmos 1975 Rocket 3.6 21:44:36 19° SSE 21:47:21 41° E 21:51:29 10° NNE
STARLINK-1105 4.4 21:44:54 10° WNW 21:47:48 34° NNE 21:50:41 10° E
Meteor 1-23 Rocket 4.3 21:42:40 10° SSW 21:48:22 80° WNW 21:54:02 10° N
STARLINK-1247 4.4 21:45:47 10° WNW 21:48:41 34° NNE 21:51:36 10° E
STARLINK-1227 4.4 21:46:16 10° WNW 21:49:10 34° NNE 21:52:04 10° E
BREEZE-M DEB (TANK) 4.1 21:29:53 10° WSW 21:49:26 71° SSE 21:54:00 10° ENE
STARLINK-1104 3.7 21:45:36 10° WNW 21:49:43 66° SSW 21:52:18 22° SE
STARLINK-1226 4.4 21:47:08 10° WNW 21:50:03 35° NNE 21:52:57 10° E
BREEZE-M DEB (TANK) 3.3 21:45:53 10° W 21:50:39 70° N 21:54:08 10° E
STARLINK-1215 4.4 21:48:01 10° WNW 21:50:57 35° NNE 21:53:52 10° E
STARLINK-1217 4.4 21:49:51 10° WNW 21:52:46 35° NNE 21:55:41 10° E
Cosmos 2369 Rocket 2.7 21:49:04 16° S 21:53:11 40° ESE 21:58:24 10° NE
STARLINK-1229 4.3 21:50:45 10° WNW 21:53:41 36° NNE 21:56:37 10° E
STARLINK-1270 4.3 21:51:39 10° WNW 21:54:35 36° NNE 21:57:31 10° E
STARLINK-1144 3.7 21:50:36 10° WNW 21:54:42 62° SW 21:57:06 23° SE
STARLINK-1189 4.3 21:53:27 10° WNW 21:56:23 36° NNE 21:59:19 10° E
STARLINK-1188 4.3 21:54:21 10° WNW 21:57:18 37° NNE 22:00:14 10° E
SPOT 5 3.1 21:53:31 18° SSE 21:57:34 84° WSW 22:02:58 10° NNW
STARLINK-1187 4.2 21:55:28 10° WNW 21:58:24 38° NNE 22:01:14 11° E
ATLAS CENTAUR R/B 3.5 21:59:35 12° ESE 21:59:35 12° ESE 22:00:51 10° E
STARLINK-1103 3.8 21:55:35 10° WNW 21:59:39 57° SW 22:01:51 25° SE
STARLINK-1191 4.3 21:56:48 10° WNW 21:59:44 37° NNE 22:02:40 10° E
STARLINK-1221 4.2 21:57:45 10° WNW 22:00:42 37° NNE 22:03:34 10° E
STARLINK-1222 4.2 21:58:36 10° WNW 22:01:32 37° NNE 22:04:23 11° E
STARLINK-1214 4.2 21:59:30 10° WNW 22:02:27 38° NNE 22:05:15 11° E
NOSS 2-2 (C) 3.2 21:58:57 10° SW 22:02:30 82° NW 22:06:34 10° NE
EXPRESS MD2 3.6 22:00:04 10° WSW 22:03:30 86° SSE 22:10:26 10° ENE
ERS-1 Rocket 3.3 21:59:40 17° S 22:03:34 64° WSW 22:08:36 10° NNW
STARLINK-1101 3.9 22:00:34 10° WNW 22:04:37 53° SW 22:06:38 26° SSE
Okean 2 3.4 22:02:00 21° S 22:04:38 68° E 22:08:47 10° NNE
Cosmos 2026 Rocket 4.2 22:00:23 18° SSE 22:05:02 59° E 22:11:17 10° NNE
Meteor 1-22 Rocket 4.3 21:59:09 10° N 22:05:06 86° ENE 22:09:05 21° SSE
BREEZE M DEB (TANK) 2.1 22:01:41 10° WSW 22:06:14 85° SSE 22:08:26 10° ENE
ATLAS 2AS CENTAUR R/B 3.6 22:00:30 15° S 22:06:15 37° ESE 22:13:22 10° NE
STARLINK-1228 3.9 22:04:55 10° WNW 22:08:20 50° NNE 22:11:08 14° E
Cosmos 1953 4.3 22:06:07 10° NNE 22:08:56 18° ENE 22:10:41 14° E
NOSS 3-2 (A) 4.1 22:01:31 10° NW 22:09:01 83° SW 22:15:11 20° SSE
STARLINK-1102 4.0 22:05:35 10° WNW 22:09:35 49° SW 22:11:26 28° SSE
Cosmos 1805 3.6 22:06:05 10° NNW 22:09:57 59° W 22:12:24 21° S
Cosmos 1470 3.6 22:06:38 10° N 22:10:15 36° ENE 22:11:51 25° ESE
STARLINK-1235 3.9 22:07:40 10° WNW 22:10:49 47° NNE 22:13:12 16° E
Okean 1 Rocket 4.2 22:07:20 10° NNW 22:11:30 39° W 22:15:06 13° SSW
Resurs 01 Rocket 4.3 22:09:38 10° WSW 22:11:42 13° W 22:13:46 10° WNW
Cosmos 968 Rocket 3.9 22:09:25 10° NNW 22:14:29 53° ENE 22:17:31 23° SE
STARLINK-1111 4.1 22:10:34 10° WNW 22:14:32 45° SW 22:16:12 29° SSE
Cosmos 1455 Rocket 3.0 22:12:52 10° N 22:17:14 73° E 22:19:25 28° SSE
STARLINK-1073 4.2 22:15:35 10° WNW 22:19:31 42° SW 22:21:00 30° S
ATLAS 5 CENTAUR R/B 3.1 22:15:29 10° SSW 22:21:46 22° ESE 22:23:13 10° ENE
USA 238 DEB 3.9 22:13:42 10° NW 22:20:53 73° SW 22:25:51 23° SSE
USA 238 3.9 22:13:48 10° NW 22:21:00 74° SW 22:25:58 23° SSE
SL-8 R/B 4.2 22:17:40 10° W 22:22:14 44° SSW 22:24:13 28° SSE
Abrixas rocket 3.8 22:21:28 10° W 22:23:18 19° SW 22:23:18 19° SW
Cosmos 1758 3.9 22:19:52 10° N 22:23:48 45° ENE 22:25:25 29° SE
STARLINK-1121 4.3 22:20:35 10° WNW 22:24:27 39° SW 22:25:46 30° S
SL-4 R/B 2.6 22:20:04 10° SW 22:24:37 45° SE 22:29:14 10° ENE
Cosmos 1842 3.2 22:24:08 27° S 22:26:10 89° E 22:30:04 10° N
Terra 2.1 22:23:15 23° S 22:26:10 61° W 22:30:55 10° NNW
Meteor 2-13 Rocket 4.4 22:23:31 21° S 22:27:49 75° E 22:33:59 10° NNE
STARLINK-1234 3.4 22:25:24 10° WNW 22:28:39 61° NNE 22:30:16 26° E
STARLINK-1106 4.4 22:25:37 10° WNW 22:29:25 36° SW 22:30:34 30° S
Cosmos 1503 Rocket 4.4 22:29:24 10° NNW 22:34:40 58° ENE 22:37:35 26° SE
STARLINK-1209 3.2 22:31:34 10° WNW 22:34:51 69° NNE 22:36:13 32° E
Cosmos 1733 4.3 22:39:10 10° NNW 22:42:41 36° W 22:44:30 22° SW
Cosmos 2263 4.1 22:39:18 22° SSW 22:42:57 69° ESE 22:48:33 10° NNE
Cosmos 1536 Rocket 3.8 22:45:43 35° SE 22:47:08 51° E 22:51:22 10° NNE
JB-3 4.5 22:46:21 10° N 22:50:31 76° WNW 22:52:30 30° SSW
Cosmos 1271 Rocket 2.6 22:49:29 41° S 22:50:43 76° E 22:54:40 10° NNE
Cosmos 1242 Rocket 2.7 22:49:25 35° SSW 22:50:50 72° WNW 22:54:32 10° N
STARLINK-60 2.7 22:52:21 41° SW 22:53:19 77° SSE 22:56:31 10° ENE
Meteor 1-21 4.3 22:50:09 22° SSW 22:53:50 79° WNW 22:59:28 10° N
Cosmos 1544 Rocket 3.7 22:49:42 10° NNW 22:54:00 65° W 22:55:47 34° SSW
Cosmos 1354 Rocket 4.1 22:48:42 10° NNW 22:54:01 74° ENE 22:56:35 31° SE
COSMOS 2455 3.3 22:52:50 30° SSE 22:55:07 42° ESE 23:00:44 10° NE
Spot 4 3.9 22:53:29 33° SSE 22:55:38 70° ENE 23:00:29 10° N
Cosmos 1486 Rocket 4.3 22:50:53 10° NNW 22:56:06 58° WSW 22:58:32 30° S
Cosmos 1833 4.1 22:52:46 10° NNW 22:58:27 86° WSW 23:01:10 32° SSE
STARLINK-1205 4.5 22:54:51 10° WNW 22:58:53 49° NNE 23:02:56 10° E
USA 215 3.6 22:53:54 10° ESE 23:00:22 64° NNE 23:06:50 10° NW
Cosmos 2297 Rocket 4.4 22:56:36 10° N 23:00:34 19° NE 23:04:30 10° E
Cosmos 1707 2.6 22:59:44 46° S 23:00:49 79° E 23:04:43 10° NNE
SL-27 R/B 3.8 22:59:04 10° NW 23:02:12 29° WSW 23:03:01 26° SW
STARLINK-1218 4.4 22:59:51 10° WNW 23:03:54 51° NNE 23:07:55 10° E
Cosmos 1174 4.1 23:06:36 36° E 23:06:36 36° E 23:09:37 10° NE
Cosmos 1726 2.3 23:02:51 10° N 23:06:34 61° E 23:07:20 48° SE
STARLINK-1254 4.3 23:04:49 10° WNW 23:08:54 53° NNE 23:12:41 12° E
ALOS 2 3.2 23:07:47 31° ESE 23:09:25 47° ENE 23:13:39 10° N
COSMOS 2487 2.6 23:06:31 10° NNW 23:09:57 60° ENE 23:10:32 50° ESE
CENTAUR R/B 3.3 23:05:16 10° NW 23:13:15 66° WSW 23:18:17 28° SSE
STARLINK-1231 4.3 23:09:48 10° WNW 23:13:53 55° NNE 23:17:27 13° E
Meteor 1-16 Rocket 4.2 23:09:58 10° N 23:15:30 72° ENE 23:17:49 35° SSE
Cosmos 1867 3.5 23:11:01 10° NW 23:16:29 75° SW 23:18:45 36° SSE
ATLAS 3B R/B 2.8 23:09:48 10° NW 23:16:37 79° NE 23:21:09 24° SE
EO 1 Del DPAF 3.3 23:14:34 10° N 23:18:21 70° WNW 23:19:30 42° SW
NOSS 3-2 (C) 4.4 23:11:17 10° NW 23:18:39 54° WSW 23:23:02 28° S
STARLINK-1232 4.2 23:14:47 10° WNW 23:18:54 57° NNE 23:22:14 15° E
Cosmos 1992 Rocket 4.0 23:16:14 27° SSW 23:19:09 80° WNW 23:24:24 10° NNE
Cosmos 1606 Rocket 4.3 23:16:08 10° N 23:20:15 41° ENE 23:21:36 32° ESE
Cosmos 1943 Rocket 3.5 23:15:39 10° WSW 23:20:47 37° NW 23:26:00 10° NNE
SeaSat 1 2.3 23:17:03 10° NNE 23:22:01 82° ESE 23:24:20 32° SSW
STARLINK-29 3.5 23:24:03 45° E 23:24:03 45° E 23:26:25 10° ENE
STARLINK-1212 3.1 23:20:14 10° WNW 23:22:54 58° W 23:22:54 58° W
STARLINK-1105 3.1 23:20:42 10° WNW 23:23:20 57° W 23:23:20 57° W
STARLINK-1208 4.1 23:19:45 10° WNW 23:23:52 60° NNE 23:27:00 16° E
STARLINK-1247 3.2 23:21:34 10° WNW 23:24:14 56° W 23:24:14 56° W
STARLINK-1227 3.2 23:22:04 10° WNW 23:24:40 54° W 23:24:40 54° W
STARLINK-1226 3.2 23:22:56 10° WNW 23:25:31 53° W 23:25:31 53° W
ATLAS CENTAUR R/B 3.5 23:25:15 10° NNW 23:26:43 16° NNE 23:28:41 10° ENE
STARLINK-1215 3.3 23:23:49 10° WNW 23:26:23 52° W 23:26:23 52° W
NOSS 3-4 (A) 3.3 23:23:52 18° SW 23:28:24 89° SE 23:34:50 10° NE
NOSS 3-4 (C) 3.3 23:24:01 19° SW 23:28:30 88° SE 23:34:56 10° NE
STARLINK-1217 3.4 23:25:39 10° WNW 23:28:07 48° W 23:28:07 48° W
STARLINK-1271 4.0 23:24:46 10° WNW 23:28:54 63° NNE 23:31:49 18° E
STARLINK-1229 3.4 23:26:34 10° WNW 23:29:01 48° W 23:29:01 48° W
RESURS DK-1 3.2 23:29:48 33° ESE 23:29:53 33° ESE 23:33:38 10° NE
STARLINK-1270 3.5 23:27:27 10° WNW 23:29:53 46° W 23:29:53 46° W
STARLINK-1189 3.6 23:29:15 10° WNW 23:31:36 43° W 23:31:36 43° W
Meteor 2-10 4.2 23:27:53 10° NNW 23:32:51 60° W 23:34:44 36° SSW
STARLINK-1188 3.6 23:30:10 10° WNW 23:32:29 42° W 23:32:29 42° W
Cosmos 2084 4.3 23:33:36 33° ESE 23:33:36 33° ESE 23:37:36 10° ENE
STARLINK-1154 3.9 23:29:44 10° WNW 23:33:53 66° NNE 23:36:35 20° E
Cosmos 2315 Rocket 4.0 23:27:49 10° N 23:34:02 72° E 23:36:59 33° SSE
BREEZE-M R/B 4.4 23:31:45 29° S 23:34:11 37° SSE 23:38:22 10° E
STARLINK-1187 3.9 23:31:18 10° WNW 23:33:23 35° W 23:33:23 35° W
STARLINK-1191 3.8 23:32:37 10° WNW 23:34:47 38° W 23:34:47 38° W
Cosmos 1626 3.8 23:36:00 21° E 23:36:18 21° E 23:39:09 10° NE
STARLINK-1221 3.9 23:33:34 10° WNW 23:35:42 37° W 23:35:42 37° W
Cosmos 2369 Rocket 3.4 23:31:56 10° WSW 23:37:14 39° NW 23:42:31 10° NNE
Cosmos 1340 Rocket 3.0 23:33:12 10° NNW 23:37:14 63° W 23:38:06 49° SSW
ATLAS CENTAUR R/B 1.3 23:35:42 38° SW 23:37:19 87° WNW 23:41:28 10° NE
STARLINK-1222 3.9 23:34:25 10° WNW 23:36:30 36° W 23:36:30 36° W
Cosmos 2227 Rocket 4.0 23:33:05 10° N 23:37:53 27° NE 23:42:40 10° ESE
STARLINK-1214 4.0 23:35:19 10° WNW 23:37:23 35° W 23:37:23 35° W
STARLINK-1197 3.8 23:34:41 10° WNW 23:38:51 69° NNE 23:41:21 23° ESE
S3M 4.4 23:33:49 10° NNW 23:39:49 55° W 23:42:52 29° SSW
Cosmos 1025 Rocket 4.1 23:39:50 25° SW 23:41:45 38° WNW 23:45:48 10° N
Cosmos 1908 3.2 23:38:02 10° N 23:41:52 73° E 23:42:29 58° SE
STARLINK-1198 3.7 23:39:40 10° WNW 23:43:50 73° NNE 23:46:07 25° ESE
Thor Agena Rocket 4.3 23:39:26 10° N 23:44:31 48° WNW 23:47:47 21° SW
Aureole 3 2.8 23:41:26 10° NNW 23:44:31 67° W 23:44:31 67° W
STARLINK-1228 4.3 23:42:15 10° WNW 23:44:35 31° WSW 23:44:35 31° WSW
Cosmos 1953 3.0 23:41:46 10° NNW 23:45:32 42° W 23:46:22 36° SW
STARLINK-1199 3.7 23:44:40 10° WNW 23:48:50 77° NNE 23:50:55 28° ESE
SL-4 R/B 3.1 23:50:08 20° NW 23:50:08 20° NW 23:51:03 10° NNW
Cosmos 1656 Rocket 4.2 23:46:09 18° SW 23:50:14 55° WNW 23:55:43 10° NNE
Landsat 4 4.3 23:47:15 10° NNE 23:50:47 40° E 23:51:00 39° ESE
Nimbus 7 Rocket 4.5 23:44:52 10° NNE 23:50:59 83° WNW 23:54:03 31° SSW
KORONAS-FOTON 3.7 23:52:25 64° S 23:52:58 83° E 23:56:49 10° N
STARLINK-1210 3.6 23:49:38 10° WNW 23:53:48 81° NNE 23:55:41 31° ESE
